QPF
0.03 0.04 0.06 0.06 0.05 0.05 0.04 0.04 0.04 0.05 0.07 0.09 0.10 0.11 0.15 0.18 0.17 0.15 0.14 0.12 0.12 0.13 0.14 0.14 0.15 0.12 0.14 0.13 0.11 0.09 0.08 0.08 0.06 0.06 0.07 0.07 0.06 0.05 0.04 0.04 0.03 0.02 0.05
0.03 0.03 0.06 0.07 0.06 0.04 0.03 0.03 0.03 0.04 0.06 0.08 0.09 0.10 0.14 0.18 0.17 0.14 0.10 0.10 0.11 0.12 0.13 0.14 0.14 0.13 0.14 0.11 0.09 0.07 0.08 0.07 0.07 0.06 0.06 0.06 0.05 0.05 0.04 0.03 0.02 0.02 0.02
0.03 0.03 0.05 0.06 0.05 0.02 0.02 0.02 0.03 0.04 0.06 0.08 0.09 0.11 0.14 0.16 0.17 0.14 0.12 0.11 0.13 0.15 0.15 0.12 0.12 0.12 0.10 0.09 0.08 0.06 0.05 0.05 0.04 0.04 0.04 0.02 0.04 0.04 0.03 0.02 0.02 0.02 0.02
0.05 0.05 0.06 0.05 0.03 0.02 0.02 0.02 0.03 0.04 0.07 0.10 0.12 0.12 0.12 0.13 0.14 0.12 0.10 0.09 0.11 0.12 0.13 0.11 0.10 0.08 0.08 0.08 0.07 0.06 0.05 0.04 0.04 0.02 0.01 0.01 0.02 0.03 0.03 0.03 0.02 0.02 0.01
0.04 0.05 0.06 0.03 0.03 0.03 0.03 0.03 0.05 0.09 0.10 0.14 0.16 0.14 0.13 0.11 0.11 0.10 0.07 0.07 0.08 0.10 0.11 0.10 0.08 0.07 0.07 0.07 0.05 0.05 0.05 0.05 0.05 0.02 0.00 0.00 0.01 0.02 0.02 0.03 0.03 0.02 0.01
0.02 0.03 0.06 0.05 0.03 0.03 0.04 0.04 0.04 0.12 0.16 0.16 0.16 0.13 0.12 0.10 0.09 0.08 0.07 0.06 0.08 0.11 0.10 0.09 0.08 0.07 0.06 0.06 0.04 0.04 0.06 0.06 0.03 0.01 0.00 0.00 0.01 0.01 0.01 0.02 0.02 0.02 0.02
0.02 0.02 0.04 0.04 0.03 0.03 0.03 0.04 0.05 0.09 0.14 0.14 0.13 0.12 0.11 0.08 0.08 0.07 0.07 0.07 0.09 0.10 0.09 0.08 0.07 0.05 0.05 0.04 0.03 0.03 0.04 0.06 0.01 0.00 0.00 0.01 0.01 0.01 0.01 0.01 0.01 0.01 0.01
0.02 0.02 0.02 0.03 0.04 0.04 0.04 0.05 0.07 0.11 0.16 0.17 0.14 0.13 0.11 0.09 0.07 0.07 0.09 0.11 0.12 0.12 0.10 0.09 0.06 0.05 0.04 0.04 0.03 0.03 0.04 0.04 0.01 0.00 0.00 0.00 0.01 0.01 0.01 0.01 0.01 0.01 0.01
0.03 0.02 0.02 0.01 0.02 0.04 0.04 0.05 0.07 0.11 0.17 0.22 0.19 0.15 0.13 0.10 0.08 0.07 0.10 0.11 0.11 0.09 0.07 0.06 0.05 0.05 0.04 0.04 0.03 0.05 0.04 0.03 0.01 0.00 0.00 0.00 0.02 0.03 0.03 0.02 0.01 0.01 0.00
0.02 0.02 0.01 0.01 0.01 0.01 0.04 0.06 0.07 0.09 0.14 0.18 0.21 0.20 0.16 0.13 0.11 0.09 0.09 0.09 0.09 0.07 0.05 0.05 0.04 0.04 0.03 0.03 0.04 0.05 0.03 0.01 0.02 0.00 0.00 0.00 0.01 0.02 0.03 0.02 0.01 0.01 0.01
0.02 0.01 0.01 0.01 0.01 0.01 0.02 0.04 0.05 0.07 0.10 0.12 0.15 0.17 0.16 0.12 0.11 0.09 0.07 0.08 0.07 0.06 0.05 0.05 0.05 0.04 0.04 0.04 0.04 0.04 0.02 0.01 0.02 0.01 0.00 0.01 0.02 0.02 0.02 0.01 0.01 0.01 0.01
0.01 0.01 0.02 0.02 0.01 0.01 0.01 0.02 0.03 0.04 0.04 0.05 0.06 0.10 0.13 0.12 0.11 0.07 0.06 0.07 0.06 0.06 0.06 0.06 0.07 0.06 0.04 0.03 0.03 0.02 0.01 0.01 0.02 0.02 0.01 0.02 0.03 0.03 0.02 0.01 0.01 0.02 0.02
0.01 0.01 0.01 0.02 0.02 0.02 0.01 0.01 0.02 0.02 0.02 0.02 0.02 0.05 0.10 0.09 0.08 0.06 0.07 0.08 0.07 0.07 0.06 0.07 0.06 0.04 0.03 0.03 0.02 0.01 0.01 0.01 0.01 0.01 0.01 0.02 0.02 0.02 0.02 0.01 0.01 0.01 0.03
0.01 0.00 0.01 0.02 0.03 0.03 0.02 0.01 0.01 0.01 0.02 0.01 0.02 0.04 0.07 0.08 0.08 0.07 0.08 0.08 0.08 0.07 0.07 0.06 0.05 0.04 0.03 0.03 0.02 0.01 0.01 0.02 0.01 0.02 0.02 0.03 0.03 0.03 0.03 0.02 0.02 0.02 0.02
0.00 0.00 0.01 0.02 0.02 0.02 0.02 0.02 0.02 0.02 0.02 0.02 0.03 0.04 0.05 0.07 0.09 0.07 0.07 0.07 0.07 0.06 0.05 0.03 0.04 0.04 0.03 0.03 0.02 0.01 0.01 0.01 0.01 0.02 0.02 0.04 0.04 0.04 0.05 0.05 0.04 0.03 0.04
0.00 0.00 0.00 0.01 0.01 0.01 0.01 0.02 0.01 0.02 0.03 0.04 0.05 0.06 0.05 0.06 0.07 0.06 0.06 0.05 0.05 0.05 0.04 0.03 0.04 0.04 0.03 0.02 0.02 0.02 0.02 0.02 0.02 0.03 0.03 0.04 0.06 0.06 0.06 0.08 0.09 0.08 0.07
0.01 0.01 0.01 0.01 0.01 0.01 0.01 0.01 0.01 0.01 0.02 0.02 0.03 0.04 0.05 0.05 0.05 0.06 0.06 0.05 0.05 0.05 0.04 0.04 0.04 0.05 0.04 0.03 0.04 0.04 0.04 0.03 0.03 0.03 0.04 0.04 0.06 0.08 0.08 0.09 0.10 0.12 0.12
0.01 0.01 0.00 0.01 0.01 0.01 0.01 0.01 0.01 0.01 0.01 0.01 0.02 0.03 0.04 0.04 0.03 0.03 0.05 0.06 0.05 0.05 0.06 0.05 0.04 0.05 0.04 0.04 0.05 0.05 0.06 0.05 0.04 0.04 0.03 0.04 0.07 0.08 0.10 0.12 0.14 0.16 0.18
0.01 0.01 0.01 0.01 0.02 0.02 0.01 0.01 0.01 0.01 0.01 0.01 0.02 0.03 0.03 0.03 0.02 0.02 0.03 0.04 0.04 0.05 0.06 0.05 0.04 0.03 0.04 0.05 0.06 0.06 0.06 0.05 0.05 0.06 0.05 0.05 0.07 0.08 0.09 0.10 0.12 0.14 0.15
0.00 0.01 0.01 0.02 0.03 0.03 0.01 0.01 0.01 0.01 0.01 0.01 0.03 0.04 0.05 0.04 0.03 0.04 0.04 0.04 0.04 0.04 0.05 0.05 0.04 0.04 0.04 0.04 0.04 0.05 0.04 0.03 0.04 0.05 0.06 0.06 0.07 0.09 0.12 0.11 0.10 0.10 0.12
0.00 0.00 0.01 0.02 0.03 0.03 0.02 0.01 0.01 0.01 0.02 0.02 0.02 0.04 0.04 0.03 0.04 0.05 0.05 0.05 0.05 0.05 0.05 0.04 0.05 0.06 0.05 0.05 0.04 0.04 0.05 0.05 0.05 0.06 0.06 0.07 0.07 0.10 0.11 0.11 0.12 0.11 0.10
0.00 0.00 0.00 0.00 0.01 0.02 0.02 0.01 0.01 0.01 0.01 0.01 0.02 0.03 0.03 0.04 0.05 0.04 0.04 0.04 0.05 0.05 0.05 0.04 0.05 0.06 0.05 0.07 0.05 0.04 0.04 0.05 0.05 0.08 0.07 0.08 0.07 0.07 0.10 0.09 0.09 0.09 0.08
0.00 0.00 0.00 0.00 0.01 0.02 0.02 0.02 0.01 0.01 0.01 0.01 0.02 0.03 0.04 0.04 0.04 0.04 0.03 0.03 0.03 0.03 0.04 0.04 0.05 0.04 0.03 0.04 0.05 0.04 0.03 0.02 0.03 0.03 0.04 0.05 0.06 0.07 0.09 0.08 0.07 0.08 0.09
0.00 0.00 0.00 0.00 0.01 0.01 0.01 0.02 0.02 0.02 0.02 0.02 0.02 0.03 0.03 0.02 0.02 0.03 0.04 0.04 0.04 0.05 0.04 0.03 0.03 0.02 0.01 0.03 0.06 0.06 0.05 0.03 0.03 0.03 0.03 0.03 0.03 0.03 0.04 0.05 0.07 0.07 0.08
0.00 0.00 0.00 0.00 0.00 0.01 0.01 0.02 0.02 0.02 0.02 0.04 0.03 0.02 0.03 0.02 0.02 0.02 0.02 0.03 0.04 0.05 0.04 0.03 0.02 0.01 0.02 0.03 0.06 0.07 0.08 0.07 0.05 0.03 0.02 0.02 0.02 0.02 0.03 0.04 0.06 0.07 0.09
0.00 0.00 0.00 0.00 0.00 0.00 0.01 0.02 0.02 0.03 0.03 0.03 0.03 0.03 0.03 0.01 0.01 0.01 0.02 0.02 0.03 0.03 0.02 0.02 0.02 0.01 0.02 0.02 0.03 0.04 0.05 0.06 0.06 0.05 0.03 0.02 0.02 0.02 0.02 0.03 0.03 0.04 0.09
MSLP
1013.51 1012.92 1012.49 1012.26 1012.20 1012.25 1012.35 1012.42 1012.40 1012.28 1012.06 1011.79 1011.52 1011.29 1011.14 1011.07 1011.05 1011.07 1011.07 1011.06 1011.01 1010.96 1010.92 1010.94 1011.04 1011.22 1011.49 1011.81 1012.16 1012.50 1012.83 1013.13 1013.42 1013.70 1014.00 1014.33 1014.68 1015.06 1015.44 1015.80 1016.13 1016.42 1016.68
1013.62 1013.10 1012.72 1012.50 1012.44 1012.48 1012.56 1012.62 1012.60 1012.49 1012.31 1012.09 1011.88 1011.72 1011.64 1011.62 1011.65 1011.69 1011.72 1011.72 1011.69 1011.64 1011.61 1011.64 1011.73 1011.91 1012.15 1012.44 1012.75 1013.06 1013.35 1013.62 1013.88 1014.15 1014.45 1014.77 1015.12 1015.48 1015.83 1016.16 1016.46 1016.72 1016.95
1013.67 1013.22 1012.88 1012.70 1012.65 1012.70 1012.79 1012.85 1012.86 1012.79 1012.66 1012.49 1012.35 1012.24 1012.20 1012.22 1012.26 1012.31 1012.34 1012.33 1012.29 1012.24 1012.22 1012.25 1012.34 1012.50 1012.73 1012.99 1013.26 1013.54 1013.80 1014.04 1014.30 1014.57 1014.86 1015.19 1015.53 1015.87 1016.21 1016.51 1016.77 1017.01 1017.22
1013.68 1013.30 1013.01 1012.87 1012.86 1012.93 1013.05 1013.14 1013.19 1013.16 1013.08 1012.98 1012.88 1012.82 1012.80 1012.82 1012.86 1012.89 1012.90 1012.88 1012.83 1012.79 1012.77 1012.80 1012.89 1013.05 1013.26 1013.50 1013.74 1013.99 1014.22 1014.46 1014.71 1014.98 1015.28 1015.60 1015.94 1016.27 1016.57 1016.85 1017.09 1017.30 1017.50
1013.70 1013.38 1013.16 1013.06 1013.09 1013.20 1013.34 1013.47 1013.56 1013.58 1013.54 1013.48 1013.42 1013.39 1013.38 1013.39 1013.41 1013.42 1013.41 1013.37 1013.32 1013.28 1013.28 1013.32 1013.43 1013.59 1013.79 1014.01 1014.23 1014.45 1014.67 1014.89 1015.14 1015.41 1015.71 1016.02 1016.35 1016.65 1016.93 1017.18 1017.39 1017.59 1017.77
1013.80 1013.53 1013.36 1013.31 1013.37 1013.51 1013.68 1013.83 1013.93 1013.98 1013.98 1013.95 1013.91 1013.89 1013.89 1013.89 1013.90 1013.89 1013.86 1013.82 1013.78 1013.75 1013.77 1013.84 1013.97 1014.14 1014.33 1014.54 1014.75 1014.94 1015.14 1015.35 1015.58 1015.85 1016.14 1016.44 1016.74 1017.02 1017.27 1017.49 1017.67 1017.85 1018.04
1014.03 1013.80 1013.67 1013.65 1013.73 1013.88 1014.04 1014.19 1014.29 1014.34 1014.35 1014.33 1014.31 1014.30 1014.31 1014.31 1014.32 1014.31 1014.28 1014.24 1014.21 1014.22 1014.26 1014.36 1014.50 1014.68 1014.88 1015.08 1015.27 1015.45 1015.63 1015.82 1016.03 1016.28 1016.55 1016.84 1017.11 1017.36 1017.57 1017.75 1017.91 1018.08 1018.25
1014.39 1014.20 1014.10 1014.09 1014.17 1014.30 1014.44 1014.55 1014.62 1014.65 1014.64 1014.63 1014.62 1014.63 1014.65 1014.67 1014.68 1014.68 1014.67 1014.65 1014.64 1014.67 1014.74 1014.86 1015.02 1015.21 1015.40 1015.59 1015.77 1015.92 1016.08 1016.25 1016.45 1016.67 1016.92 1017.18 1017.42 1017.63 1017.81 1017.96 1018.10 1018.24 1018.42
1014.86 1014.70 1014.62 1014.62 1014.68 1014.77 1014.85 1014.90 1014.92 1014.90 1014.88 1014.86 1014.86 1014.89 1014.94 1014.99 1015.03 1015.06 1015.06 1015.05 1015.06 1015.10 1015.18 1015.30 1015.47 1015.65 1015.84 1016.02 1016.18 1016.32 1016.46 1016.61 1016.79 1016.99 1017.22 1017.44 1017.66 1017.84 1017.99 1018.11 1018.23 1018.36 1018.52
1015.35 1015.23 1015.17 1015.17 1015.21 1015.25 1015.27 1015.25 1015.21 1015.14 1015.09 1015.06 1015.08 1015.14 1015.23 1015.32 1015.39 1015.44 1015.45 1015.46 1015.46 1015.49 1015.56 1015.68 1015.83 1016.00 1016.17 1016.34 1016.48 1016.61 1016.73 1016.87 1017.03 1017.22 1017.42 1017.63 1017.82 1017.98 1018.11 1018.22 1018.32 1018.43 1018.58
1015.77 1015.70 1015.68 1015.70 1015.72 1015.72 1015.68 1015.60 1015.49 1015.39 1015.31 1015.29 1015.33 1015.42 1015.54 1015.67 1015.77 1015.84 1015.86 1015.85 1015.84 1015.84 1015.88 1015.97 1016.09 1016.23 1016.39 1016.53 1016.66 1016.78 1016.90 1017.03 1017.17 1017.35 1017.54 1017.74 1017.92 1018.07 1018.20 1018.29 1018.38 1018.49 1018.63
1016.06 1016.05 1016.09 1016.13 1016.15 1016.13 1016.05 1015.93 1015.78 1015.65 1015.57 1015.55 1015.61 1015.73 1015.89 1016.04 1016.17 1016.24 1016.26 1016.23 1016.19 1016.15 1016.15 1016.19 1016.27 1016.38 1016.51 1016.64 1016.76 1016.87 1016.98 1017.10 1017.24 1017.41 1017.60 1017.79 1017.97 1018.13 1018.26 1018.37 1018.46 1018.57 1018.70
1016.17 1016.24 1016.33 1016.42 1016.46 1016.44 1016.36 1016.22 1016.06 1015.92 1015.84 1015.84 1015.92 1016.07 1016.25 1016.42 1016.56 1016.63 1016.63 1016.58 1016.50 1016.42 1016.37 1016.36 1016.40 1016.48 1016.59 1016.70 1016.80 1016.91 1017.01 1017.12 1017.26 1017.43 1017.61 1017.81 1018.00 1018.17 1018.32 1018.45 1018.55 1018.66 1018.79
1016.11 1016.25 1016.40 1016.54 1016.62 1016.63 1016.56 1016.44 1016.30 1016.18 1016.11 1016.13 1016.23 1016.38 1016.57 1016.75 1016.89 1016.95 1016.94 1016.87 1016.76 1016.65 1016.57 1016.53 1016.54 1016.59 1016.67 1016.76 1016.85 1016.94 1017.03 1017.14 1017.27 1017.42 1017.60 1017.80 1018.00 1018.20 1018.37 1018.52 1018.66 1018.78 1018.92
1015.94 1016.12 1016.32 1016.50 1016.63 1016.68 1016.66 1016.58 1016.48 1016.38 1016.34 1016.37 1016.47 1016.63 1016.81 1016.99 1017.11 1017.17 1017.16 1017.09 1016.98 1016.86 1016.77 1016.71 1016.69 1016.72 1016.78 1016.85 1016.93 1017.00 1017.08 1017.16 1017.27 1017.41 1017.58 1017.77 1017.99 1018.20 1018.40 1018.58 1018.74 1018.89 1019.03
1015.73 1015.92 1016.14 1016.35 1016.51 1016.61 1016.64 1016.62 1016.57 1016.52 1016.50 1016.53 1016.63 1016.77 1016.93 1017.08 1017.20 1017.26 1017.26 1017.21 1017.12 1017.03 1016.95 1016.90 1016.88 1016.90 1016.95 1017.00 1017.05 1017.10 1017.14 1017.20 1017.28 1017.39 1017.54 1017.72 1017.93 1018.15 1018.38 1018.58 1018.77 1018.94 1019.09
1015.54 1015.72 1015.93 1016.14 1016.33 1016.46 1016.55 1016.58 1016.59 1016.57 1016.57 1016.60 1016.68 1016.78 1016.91 1017.04 1017.14 1017.21 1017.24 1017.23 1017.20 1017.15 1017.11 1017.08 1017.08 1017.10 1017.13 1017.16 1017.19 1017.21 1017.22 1017.24 1017.28 1017.36 1017.48 1017.64 1017.84 1018.06 1018.29 1018.51 1018.72 1018.90 1019.06
1015.44 1015.57 1015.74 1015.93 1016.12 1016.29 1016.42 1016.51 1016.56 1016.58 1016.59 1016.61 1016.64 1016.70 1016.78 1016.87 1016.97 1017.05 1017.12 1017.16 1017.19 1017.21 1017.22 1017.24 1017.26 1017.28 1017.30 1017.31 1017.31 1017.30 1017.28 1017.27 1017.27 1017.32 1017.40 1017.53 1017.70 1017.91 1018.13 1018.35 1018.56 1018.75 1018.92
1015.41 1015.48 1015.60 1015.76 1015.94 1016.13 1016.30 1016.44 1016.53 1016.58 1016.59 1016.58 1016.57 1016.57 1016.60 1016.65 1016.72 1016.82 1016.92 1017.03 1017.12 1017.20 1017.27 1017.33 1017.37 1017.40 1017.41 1017.41 1017.38 1017.35 1017.31 1017.27 1017.25 1017.26 1017.32 1017.41 1017.55 1017.73 1017.92 1018.13 1018.33 1018.51 1018.67
1015.45 1015.46 1015.52 1015.64 1015.82 1016.02 1016.23 1016.41 1016.54 1016.61 1016.62 1016.58 1016.52 1016.46 1016.42 1016.43 1016.48 1016.58 1016.71 1016.86 1017.00 1017.14 1017.25 1017.33 1017.39 1017.42 1017.43 1017.42 1017.39 1017.35 1017.30 1017.26 1017.23 1017.22 1017.25 1017.31 1017.41 1017.55 1017.71 1017.88 1018.04 1018.20 1018.34
1015.50 1015.46 1015.48 1015.58 1015.74 1015.97 1016.21 1016.43 1016.59 1016.68 1016.69 1016.63 1016.52 1016.41 1016.31 1016.27 1016.30 1016.38 1016.52 1016.69 1016.87 1017.03 1017.17 1017.26 1017.33 1017.36 1017.36 1017.35 1017.32 1017.29 1017.26 1017.23 1017.21 1017.20 1017.21 1017.25 1017.32 1017.41 1017.53 1017.65 1017.77 1017.89 1018.00
1015.51 1015.45 1015.45 1015.53 1015.71 1015.95 1016.22 1016.49 1016.69 1016.81 1016.82 1016.74 1016.60 1016.45 1016.31 1016.22 1016.21 1016.28 1016.41 1016.57 1016.75 1016.92 1017.05 1017.14 1017.19 1017.21 1017.21 1017.21 1017.21 1017.21 1017.21 1017.21 1017.21 1017.22 1017.23 1017.25 1017.29 1017.34 1017.40 1017.48 1017.55 1017.63 1017.69
1015.46 1015.40 1015.40 1015.48 1015.67 1015.94 1016.25 1016.56 1016.80 1016.95 1016.98 1016.90 1016.75 1016.57 1016.39 1016.27 1016.23 1016.27 1016.37 1016.52 1016.68 1016.81 1016.92 1016.98 1017.01 1017.02 1017.03 1017.04 1017.06 1017.10 1017.15 1017.20 1017.24 1017.27 1017.29 1017.30 1017.31 1017.33 1017.35 1017.38 1017.41 1017.45 1017.48
1015.34 1015.29 1015.30 1015.40 1015.61 1015.91 1016.25 1016.59 1016.88 1017.06 1017.12 1017.06 1016.91 1016.72 1016.54 1016.40 1016.34 1016.35 1016.42 1016.53 1016.65 1016.74 1016.81 1016.83 1016.83 1016.83 1016.83 1016.85 1016.91 1016.99 1017.09 1017.18 1017.26 1017.32 1017.35 1017.36 1017.36 1017.35 1017.34 1017.34 1017.35 1017.36 1017.37
1015.18 1015.15 1015.17 1015.28 1015.50 1015.82 1016.19 1016.56 1016.87 1017.09 1017.18 1017.15 1017.03 1016.85 1016.68 1016.55 1016.47 1016.47 1016.51 1016.59 1016.66 1016.71 1016.72 1016.71 1016.68 1016.65 1016.65 1016.69 1016.77 1016.88 1017.01 1017.14 1017.25 1017.33 1017.37 1017.38 1017.37 1017.35 1017.33 1017.33 1017.33 1017.34 1017.35
1015.03 1015.00 1015.02 1015.14 1015.36 1015.68 1016.05 1016.43 1016.77 1017.00 1017.12 1017.13 1017.04 1016.90 1016.76 1016.65 1016.58 1016.57 1016.60 1016.65 1016.68 1016.69 1016.66 1016.61 1016.55 1016.50 1016.49 1016.54 1016.63 1016.76 1016.92 1017.06 1017.18 1017.26 1017.30 1017.31 1017.30 1017.28 1017.28 1017.30 1017.33 1017.38 1017.42
Thickness
5761 5765 5766 5768 5769 5771 5772 5774 5775 5776 5776 5777 5778 5778 5778 5778 5778 5778 5777 5777 5776 5775 5775 5773 5772 5771 5770 5769 5767 5765 5763 5762 5760 5759 5757 5755 5753 5752 5750 5748 5747 5745 5743
5764 5766 5766 5767 5769 5770 5772 5773 5775 5775 5775 5776 5776 5776 5776 5776 5776 5776 5776 5775 5774 5773 5773 5772 5771 5769 5768 5766 5765 5763 5762 5760 5759 5757 5755 5754 5752 5750 5748 5747 5745 5743 5742
5765 5766 5766 5767 5768 5769 5771 5772 5774 5775 5775 5775 5775 5774 5774 5774 5774 5774 5774 5774 5773 5772 5771 5770 5769 5767 5766 5765 5763 5761 5760 5759 5757 5755 5754 5752 5750 5748 5747 5745 5744 5742 5740
5765 5765 5765 5766 5767 5768 5769 5771 5773 5773 5773 5773 5773 5773 5773 5773 5773 5773 5772 5772 5771 5770 5769 5769 5768 5766 5764 5763 5762 5760 5759 5757 5756 5754 5752 5751 5749 5748 5746 5744 5743 5741 5739
5764 5764 5765 5765 5766 5767 5768 5770 5771 5772 5772 5772 5771 5771 5771 5771 5771 5771 5771 5770 5770 5769 5768 5767 5766 5764 5763 5761 5760 5759 5757 5756 5754 5752 5751 5749 5748 5747 5745 5744 5742 5740 5738
5764 5764 5764 5765 5765 5766 5767 5768 5769 5770 5770 5771 5771 5770 5770 5770 5770 5770 5769 5769 5768 5767 5766 5765 5764 5763 5761 5760 5759 5758 5756 5755 5753 5750 5749 5748 5746 5745 5744 5743 5741 5739 5738
5763 5763 5764 5764 5764 5765 5766 5766 5767 5768 5769 5770 5770 5769 5769 5769 5769 5768 5768 5767 5767 5766 5765 5764 5762 5761 5760 5759 5758 5757 5756 5754 5751 5749 5748 5746 5745 5744 5743 5741 5740 5738 5737
5763 5762 5763 5763 5763 5764 5764 5765 5765 5766 5767 5768 5769 5768 5768 5767 5767 5767 5766 5766 5765 5764 5763 5762 5761 5760 5759 5758 5757 5756 5754 5753 5751 5749 5747 5745 5744 5743 5742 5740 5739 5737 5736
5762 5762 5762 5762 5762 5762 5763 5763 5764 5764 5765 5765 5766 5766 5766 5766 5766 5765 5765 5764 5764 5763 5762 5761 5760 5759 5757 5756 5756 5755 5753 5752 5750 5748 5746 5745 5744 5742 5741 5740 5738 5736 5735
5762 5761 5761 5761 5761 5761 5761 5762 5762 5763 5763 5763 5764 5764 5764 5764 5764 5763 5763 5763 5762 5762 5761 5760 5759 5758 5757 5756 5755 5754 5752 5750 5748 5747 5745 5744 5743 5742 5741 5739 5738 5736 5735
5761 5761 5761 5760 5760 5760 5760 5761 5761 5761 5761 5761 5762 5763 5762 5762 5762 5761 5762 5762 5762 5761 5760 5759 5758 5757 5756 5755 5754 5753 5751 5749 5748 5746 5745 5744 5742 5741 5740 5739 5737 5735 5734
5759 5760 5760 5760 5760 5760 5760 5760 5760 5760 5760 5760 5760 5761 5761 5760 5760 5760 5761 5761 5761 5760 5759 5758 5758 5757 5755 5754 5753 5752 5751 5749 5748 5746 5745 5744 5742 5741 5740 5738 5737 5735 5733
5762 5762 5762 5761 5761 5760 5760 5760 5759 5759 5759 5759 5759 5760 5759 5759 5759 5759 5760 5759 5759 5759 5758 5757 5757 5756 5754 5754 5753 5752 5751 5749 5748 5747 5746 5744 5742 5741 5739 5738 5736 5734 5733
5764 5763 5764 5763 5762 5761 5760 5760 5759 5758 5758 5758 5759 5759 5759 5758 5758 5758 5758 5758 5758 5758 5757 5756 5756 5755 5754 5753 5752 5752 5750 5749 5748 5747 5746 5744 5743 5741 5739 5737 5735 5734 5733
5766 5766 5765 5765 5764 5763 5761 5761 5760 5759 5758 5758 5758 5758 5758 5758 5758 5758 5757 5758 5758 5757 5756 5756 5755 5754 5754 5753 5752 5751 5750 5749 5748 5747 5745 5744 5742 5740 5738 5737 5735 5734 5733
5769 5768 5768 5766 5766 5764 5763 5762 5761 5760 5759 5759 5759 5759 5759 5759 5759 5758 5758 5757 5757 5757 5756 5756 5755 5754 5753 5752 5752 5751 5750 5749 5747 5746 5744 5743 5742 5740 5738 5737 5735 5734 5733
5773 5772 5771 5769 5768 5766 5765 5764 5763 5762 5761 5760 5760 5760 5760 5760 5759 5758 5757 5757 5757 5756 5756 5755 5754 5753 5753 5751 5750 5750 5749 5748 5747 5745 5743 5742 5741 5739 5737 5736 5734 5733 5732
5777 5775 5774 5774 5770 5768 5767 5766 5765 5764 5763 5762 5761 5761 5760 5760 5759 5758 5757 5757 5757 5756 5755 5754 5754 5752 5751 5749 5748 5748 5747 5746 5745 5744 5742 5741 5739 5738 5736 5735 5733 5732 5732
5781 5778 5776 5775 5773 5771 5769 5768 5767 5766 5764 5763 5762 5761 5761 5760 5759 5758 5757 5757 5756 5755 5754 5754 5752 5751 5748 5747 5746 5745 5745 5744 5743 5742 5741 5739 5738 5736 5735 5734 5733 5731 5730
5784 5782 5779 5777 5775 5772 5770 5768 5767 5766 5765 5765 5764 5763 5761 5760 5759 5758 5757 5756 5755 5754 5753 5752 5751 5750 5748 5746 5745 5743 5742 5742 5741 5740 5739 5738 5736 5735 5733 5732 5731 5730 5729
5786 5783 5781 5778 5776 5774 5770 5768 5765 5764 5765 5765 5764 5764 5763 5761 5760 5758 5757 5756 5755 5753 5752 5751 5749 5747 5745 5744 5741 5737 5738 5739 5738 5737 5736 5735 5734 5733 5731 5730 5729 5728 5727
5788 5786 5783 5781 5779 5777 5774 5771 5769 5767 5766 5766 5765 5764 5763 5761 5760 5759 5757 5755 5754 5752 5751 5750 5748 5745 5743 5742 5738 5733 5729 5730 5732 5734 5733 5732 5730 5729 5728 5727 5726 5724 5723
5791 5789 5788 5785 5782 5780 5777 5773 5770 5768 5766 5765 5763 5763 5762 5762 5761 5759 5757 5755 5754 5752 5750 5749 5748 5745 5741 5740 5740 5735 5728 5724 5725 5727 5728 5728 5726 5725 5725 5723 5722 5721 5720
5797 5795 5792 5788 5785 5783 5780 5775 5771 5767 5763 5763 5763 5762 5762 5762 5760 5759 5757 5755 5753 5752 5750 5749 5748 5745 5742 5738 5737 5736 5734 5731 5724 5721 5722 5722 5722 5721 5720 5720 5718 5718 5717
5803 5799 5795 5791 5788 5785 5782 5778 5773 5770 5767 5765 5764 5762 5761 5761 5760 5758 5757 5755 5753 5751 5749 5748 5747 5745 5743 5740 5737 5734 5732 5729 5727 5721 5717 5716 5716 5716 5715 5715 5714 5713 5712
5806 5802 5798 5793 5789 5787 5783 5780 5776 5772 5769 5766 5763 5761 5760 5759 5758 5758 5757 5755 5753 5750 5749 5747 5746 5744 5742 5740 5737 5735 5732 5728 5725 5721 5717 5714 5711 5710 5710 5709 5709 5708 5707